Time,TemperatureF,DewpointF,PressureIn,WindDirection,WindDirectionDegrees,WindSpeedMPH,WindSpeedGustMPH,Humidity,HourlyPrecipIn,Conditions,Clouds,dailyrainin,SoftwareType,DateUTC
2013-02-18 00:12:00,29.8,22.9,30.01,WNW,292,0.0,-999.0,75,-99.99,,,0.00,Acu-Link.com,2013-02-18 05:12:00,
2013-02-18 00:27:00,29.5,29.0,30.01,North,0,0.0,-999.0,98,-99.99,,,0.00,Acu-Link.com,2013-02-18 05:27:00,
2013-02-18 00:42:00,29.1,28.6,30.02,West,270,0.0,-999.0,98,-99.99,,,0.00,Acu-Link.com,2013-02-18 05:42:00,
2013-02-18 00:58:00,29.3,28.8,30.01,WSW,247,0.0,-999.0,98,-99.99,,,0.00,Acu-Link.com,2013-02-18 05:58:00,
2013-02-18 01:13:00,29.3,25.9,30.02,NNE,22,0.0,-999.0,87,-99.99,,,0.00,Acu-Link.com,2013-02-18 06:13:00,
2013-02-18 01:28:00,28.9,24.1,30.02,West,270,0.0,-999.0,82,-99.99,,,0.00,Acu-Link.com,2013-02-18 06:28:00,
2013-02-18 01:43:00,28.9,22.3,30.02,South,180,0.0,-999.0,76,-99.99,,,0.00,Acu-Link.com,2013-02-18 06:43:00,
2013-02-18 01:58:00,28.9,22.9,30.02,NNE,22,0.0,-999.0,78,-99.99,,,0.00,Acu-Link.com,2013-02-18 06:58:00,
2013-02-18 02:13:00,28.8,24.0,30.02,NNE,22,0.0,-999.0,82,-99.99,,,0.00,Acu-Link.com,2013-02-18 07:13:00,
2013-02-18 02:29:00,28.4,25.3,30.02,South,180,0.0,-999.0,88,-99.99,,,0.00,Acu-Link.com,2013-02-18 07:29:00,
2013-02-18 02:44:00,28.4,23.3,30.02,NNW,337,0.0,-999.0,81,-99.99,,,0.00,Acu-Link.com,2013-02-18 07:44:00,
2013-02-18 02:59:00,28.2,23.7,30.02,NNW,337,0.0,-999.0,83,-99.99,,,0.00,Acu-Link.com,2013-02-18 07:59:00,
2013-02-18 03:14:00,28.2,25.9,30.02,NNW,337,0.0,-999.0,91,-99.99,,,0.00,Acu-Link.com,2013-02-18 08:14:00,
2013-02-18 03:29:00,27.9,26.9,30.02,NNW,337,0.0,-999.0,96,-99.99,,,0.00,Acu-Link.com,2013-02-18 08:29:00,
2013-02-18 03:44:00,27.9,26.1,30.02,NNE,22,0.0,-999.0,93,-99.99,,,0.00,Acu-Link.com,2013-02-18 08:44:00,
2013-02-18 03:59:00,27.9,27.4,30.02,South,180,0.0,-999.0,98,-99.99,,,0.00,Acu-Link.com,2013-02-18 08:59:00,
2013-02-18 04:18:00,27.9,27.4,30.02,SSW,202,0.0,-999.0,98,-99.99,,,0.00,Acu-Link.com,2013-02-18 09:18:00,
2013-02-18 04:33:00,27.7,27.2,30.03,North,0,0.0,-999.0,98,-99.99,,,0.00,Acu-Link.com,2013-02-18 09:33:00,
2013-02-18 04:48:00,27.5,27.0,30.03,NNE,22,0.0,-999.0,98,-99.99,,,0.00,Acu-Link.com,2013-02-18 09:48:00,
2013-02-18 05:03:00,27.1,26.6,30.03,NNE,22,0.0,-999.0,98,-99.99,,,0.00,Acu-Link.com,2013-02-18 10:03:00,
2013-02-18 05:19:00,27.1,26.6,30.04,NNE,22,0.0,-999.0,98,-99.99,,,0.00,Acu-Link.com,2013-02-18 10:19:00,
2013-02-18 05:34:00,27.0,26.5,30.04,North,0,0.0,-999.0,98,-99.99,,,0.00,Acu-Link.com,2013-02-18 10:34:00,
2013-02-18 05:49:00,26.6,26.1,30.04,North,0,0.0,-999.0,98,-99.99,,,0.00,Acu-Link.com,2013-02-18 10:49:00,
2013-02-18 06:04:00,26.2,25.7,30.05,NW,315,0.0,-999.0,98,-99.99,,,0.00,Acu-Link.com,2013-02-18 11:04:00,
2013-02-18 06:19:00,26.1,25.6,30.05,NW,315,0.0,-999.0,98,-99.99,,,0.00,Acu-Link.com,2013-02-18 11:19:00,
2013-02-18 06:34:00,26.1,25.6,30.06,SW,225,0.0,-999.0,98,-99.99,,,0.00,Acu-Link.com,2013-02-18 11:34:00,
2013-02-18 06:49:00,25.9,25.4,30.05,NNE,22,0.0,-999.0,98,-99.99,,,0.00,Acu-Link.com,2013-02-18 11:49:00,
2013-02-18 07:05:00,25.9,25.4,30.03,NNE,22,0.0,-999.0,98,-99.99,,,0.00,Acu-Link.com,2013-02-18 12:05:00,
2013-02-18 07:20:00,25.9,25.4,30.04,West,270,0.0,-999.0,98,-99.99,,,0.00,Acu-Link.com,2013-02-18 12:20:00,
2013-02-18 07:35:00,26.1,25.6,30.04,East,90,0.0,-999.0,98,-99.99,,,0.00,Acu-Link.com,2013-02-18 12:35:00,
2013-02-18 07:50:00,26.1,25.6,30.05,NNW,337,0.0,-999.0,98,-99.99,,,0.00,Acu-Link.com,2013-02-18 12:50:00,
2013-02-18 08:05:00,27.0,26.5,30.05,NNE,22,0.0,-999.0,98,-99.99,,,0.00,Acu-Link.com,2013-02-18 13:05:00,
2013-02-18 08:20:00,28.0,27.5,30.06,NE,45,0.0,-999.0,98,-99.99,,,0.00,Acu-Link.com,2013-02-18 13:20:00,
2013-02-18 08:35:00,29.7,29.2,30.06,NNE,22,0.0,-999.0,98,-99.99,,,0.00,Acu-Link.com,2013-02-18 13:35:00,
2013-02-18 08:50:00,32.0,31.5,30.07,NW,315,0.0,-999.0,98,-99.99,,,0.00,Acu-Link.com,2013-02-18 13:50:00,
2013-02-18 09:05:00,36.7,27.5,30.07,WNW,292,0.0,-999.0,69,-99.99,,,0.00,Acu-Link.com,2013-02-18 14:05:00,
2013-02-18 09:21:00,41.0,24.3,30.08,SE,135,5.3,-999.0,51,-99.99,,,0.00,Acu-Link.com,2013-02-18 14:21:00,
2013-02-18 09:36:00,44.4,25.4,30.08,SE,135,1.7,-999.0,47,-99.99,,,0.00,Acu-Link.com,2013-02-18 14:36:00,
2013-02-18 09:51:00,46.2,25.5,30.08,SE,135,3.2,-999.0,44,-99.99,,,0.00,Acu-Link.com,2013-02-18 14:51:00,
2013-02-18 10:06:00,46.4,25.7,30.08,SW,225,2.2,-999.0,44,-99.99,,,0.00,Acu-Link.com,2013-02-18 15:06:00,
2013-02-18 10:21:00,48.4,28.6,30.08,SSE,157,2.7,-999.0,46,-99.99,,,0.00,Acu-Link.com,2013-02-18 15:21:00,
2013-02-18 10:36:00,48.2,27.9,30.07,WSW,247,3.2,-999.0,45,-99.99,,,0.00,Acu-Link.com,2013-02-18 15:36:00,
2013-02-18 10:51:00,49.5,28.5,30.07,ESE,112,2.7,-999.0,44,-99.99,,,0.00,Acu-Link.com,2013-02-18 15:51:00,
2013-02-18 11:06:00,48.4,28.0,30.07,SSE,157,6.3,-999.0,45,-99.99,,,0.00,Acu-Link.com,2013-02-18 16:06:00,
2013-02-18 11:21:00,49.6,28.6,30.07,ESE,112,3.7,-999.0,44,-99.99,,,0.00,Acu-Link.com,2013-02-18 16:21:00,
2013-02-18 11:36:00,50.4,28.8,30.06,South,180,1.7,-999.0,43,-99.99,,,0.00,Acu-Link.com,2013-02-18 16:36:00,
2013-02-18 11:52:00,52.0,29.6,30.05,West,270,4.7,-999.0,42,-99.99,,,0.00,Acu-Link.com,2013-02-18 16:52:00,
2013-02-18 12:07:00,52.9,29.8,30.04,ENE,67,4.2,-999.0,41,-99.99,,,0.00,Acu-Link.com,2013-02-18 17:07:00,
2013-02-18 12:22:00,54.1,30.9,30.03,SSW,202,4.7,-999.0,41,-99.99,,,0.00,Acu-Link.com,2013-02-18 17:22:00,
2013-02-18 12:37:00,54.7,30.9,30.02,SE,135,1.7,-999.0,40,-99.99,,,0.00,Acu-Link.com,2013-02-18 17:37:00,
2013-02-18 12:52:00,56.1,30.8,30.01,SE,135,7.3,-999.0,38,-99.99,,,0.00,Acu-Link.com,2013-02-18 17:52:00,
2013-02-18 13:08:00,58.3,34.1,29.99,SSE,157,5.3,-999.0,40,-99.99,,,0.00,Acu-Link.com,2013-02-18 18:08:00,
2013-02-18 13:23:00,57.6,32.8,29.98,ESE,112,6.3,-999.0,39,-99.99,,,0.00,Acu-Link.com,2013-02-18 18:23:00,
2013-02-18 13:38:00,60.1,34.4,29.96,WSW,247,3.2,-999.0,38,-99.99,,,0.00,Acu-Link.com,2013-02-18 18:38:00,
2013-02-18 13:53:00,58.5,33.6,29.96,SSE,157,4.7,-999.0,39,-99.99,,,0.00,Acu-Link.com,2013-02-18 18:53:00,
2013-02-18 14:09:00,60.1,33.7,29.94,SSE,157,7.8,-999.0,37,-99.99,,,0.00,Acu-Link.com,2013-02-18 19:09:00,
2013-02-18 14:24:00,59.4,32.4,29.93,WSW,247,4.7,-999.0,36,-99.99,,,0.00,Acu-Link.com,2013-02-18 19:24:00,
2013-02-18 14:39:00,59.9,34.2,29.93,ESE,112,5.8,-999.0,38,-99.99,,,0.00,Acu-Link.com,2013-02-18 19:39:00,
2013-02-18 14:54:00,59.5,34.5,29.92,ESE,112,2.7,-999.0,39,-99.99,,,0.00,Acu-Link.com,2013-02-18 19:54:00,
2013-02-18 15:09:00,61.2,37.3,29.92,SSE,157,2.7,-999.0,41,-99.99,,,0.00,Acu-Link.com,2013-02-18 20:09:00,
2013-02-18 15:24:00,59.5,35.2,29.91,WNW,292,5.3,-999.0,40,-99.99,,,0.00,Acu-Link.com,2013-02-18 20:24:00,
2013-02-18 15:39:00,59.7,36.0,29.91,West,270,4.7,-999.0,41,-99.99,,,0.00,Acu-Link.com,2013-02-18 20:39:00,
2013-02-18 15:54:00,60.4,36.0,29.90,SW,225,4.7,-999.0,40,-99.99,,,0.00,Acu-Link.com,2013-02-18 20:54:00,
2013-02-18 16:09:00,60.1,35.7,29.89,SE,135,4.7,-999.0,40,-99.99,,,0.00,Acu-Link.com,2013-02-18 21:09:00,
2013-02-18 16:25:00,59.9,34.9,29.88,ESE,112,2.2,-999.0,39,-99.99,,,0.00,Acu-Link.com,2013-02-18 21:25:00,
2013-02-18 16:40:00,59.2,34.3,29.87,North,0,6.3,-999.0,39,-99.99,,,0.00,Acu-Link.com,2013-02-18 21:40:00,
2013-02-18 16:55:00,59.0,34.1,29.86,West,270,2.7,-999.0,39,-99.99,,,0.00,Acu-Link.com,2013-02-18 21:55:00,
2013-02-18 17:10:00,58.3,34.1,29.86,WSW,247,4.2,-999.0,40,-99.99,,,0.00,Acu-Link.com,2013-02-18 22:10:00,
2013-02-18 17:25:00,57.9,34.3,29.86,West,270,1.7,-999.0,41,-99.99,,,0.00,Acu-Link.com,2013-02-18 22:25:00,
2013-02-18 17:40:00,57.2,33.7,29.85,South,180,3.7,-999.0,41,-99.99,,,0.00,Acu-Link.com,2013-02-18 22:40:00,
2013-02-18 17:55:00,57.0,33.5,29.85,ESE,112,4.7,-999.0,41,-99.99,,,0.00,Acu-Link.com,2013-02-18 22:55:00,
2013-02-18 18:10:00,56.7,33.3,29.84,SSW,202,3.7,-999.0,41,-99.99,,,0.00,Acu-Link.com,2013-02-18 23:10:00,
2013-02-18 18:25:00,55.9,33.7,29.84,SE,135,4.2,-999.0,43,-99.99,,,0.00,Acu-Link.com,2013-02-18 23:25:00,
2013-02-18 18:41:00,55.2,34.2,29.84,SSE,157,0.0,-999.0,45,-99.99,,,0.00,Acu-Link.com,2013-02-18 23:41:00,
2013-02-18 18:56:00,54.3,34.0,29.84,ENE,67,1.1,-999.0,46,-99.99,,,0.00,Acu-Link.com,2013-02-18 23:56:00,
2013-02-18 19:11:00,53.2,33.5,29.84,NW,315,2.2,-999.0,47,-99.99,,,0.00,Acu-Link.com,2013-02-19 00:11:00,
2013-02-18 19:26:00,53.4,33.7,29.85,ESE,112,3.7,-999.0,47,-99.99,,,0.00,Acu-Link.com,2013-02-19 00:26:00,
2013-02-18 19:42:00,54.0,33.1,29.85,South,180,3.2,-999.0,45,-99.99,,,0.00,Acu-Link.com,2013-02-19 00:42:00,
2013-02-18 19:57:00,53.6,33.3,29.85,SW,225,2.2,-999.0,46,-99.99,,,0.00,Acu-Link.com,2013-02-19 00:57:00,
2013-02-18 20:12:00,53.1,33.4,29.84,SE,135,4.2,-999.0,47,-99.99,,,0.00,Acu-Link.com,2013-02-19 01:12:00,
2013-02-18 20:27:00,53.4,33.7,29.82,SE,135,3.7,-999.0,47,-99.99,,,0.00,Acu-Link.com,2013-02-19 01:27:00,
2013-02-18 20:42:00,53.2,34.0,29.81,South,180,4.7,-999.0,48,-99.99,,,0.00,Acu-Link.com,2013-02-19 01:42:00,
2013-02-18 20:57:00,53.4,33.1,29.81,SSW,202,2.2,-999.0,46,-99.99,,,0.00,Acu-Link.com,2013-02-19 01:57:00,
2013-02-18 21:12:00,52.9,33.2,29.81,West,270,5.8,-999.0,47,-99.99,,,0.00,Acu-Link.com,2013-02-19 02:12:00,
2013-02-18 21:27:00,52.3,33.2,29.80,ESE,112,3.2,-999.0,48,-99.99,,,0.00,Acu-Link.com,2013-02-19 02:27:00,
2013-02-18 21:42:00,52.2,33.1,29.79,SE,135,4.2,-999.0,48,-99.99,,,0.00,Acu-Link.com,2013-02-19 02:42:00,
2013-02-18 21:58:00,51.6,33.1,29.79,NNW,337,5.3,-999.0,49,-99.99,,,0.00,Acu-Link.com,2013-02-19 02:58:00,
2013-02-18 22:28:00,51.3,33.3,29.77,SSW,202,4.2,-999.0,50,-99.99,,,0.00,Acu-Link.com,2013-02-19 03:28:00,
2013-02-18 22:43:00,51.1,33.6,29.78,South,180,2.7,-999.0,51,-99.99,,,0.00,Acu-Link.com,2013-02-19 03:43:00,
2013-02-18 22:58:00,51.3,33.3,29.78,NW,315,2.7,-999.0,50,-99.99,,,0.00,Acu-Link.com,2013-02-19 03:58:00,
2013-02-18 23:13:00,51.3,33.3,29.79,ENE,67,5.3,-999.0,50,-99.99,,,0.00,Acu-Link.com,2013-02-19 04:13:00,
2013-02-18 23:29:00,51.1,33.1,29.76,SE,135,5.3,-999.0,50,-99.99,,,0.00,Acu-Link.com,2013-02-19 04:29:00,
2013-02-18 23:44:00,51.1,33.1,29.76,SSE,157,5.8,-999.0,50,-99.99,,,0.00,Acu-Link.com,2013-02-19 04:44:00,
2013-02-18 23:59:00,50.7,32.7,29.73,SSE,157,6.3,-999.0,50,-99.99,,,0.00,Acu-Link.com,2013-02-19 04:59:00,